Weather in Kay

Russia / Kirov Oblast     59°57′37″N   52°58′33″E
temp.,
°C
wind,
m/s
gust,
m/s
humid.,
%
clouds,
%
prec.,
mm/h
press.,
hPa
HPBL,
m
8 march, mon
mon800:00−17se2397100 0.0 100348
03:00−17e3697100 0.0 1001149
06:00−16e3796100 0.0 999246
09:00−14e3793100 0.3 999375
12:00−11e3691100 0.4 998536
15:00−10ene4692100 0.7 998605
18:00−12ne3795100 0.4 999338
21:00−13nne3895100 0.6 1001352
9 march, tue
tue900:00−15nne3795100 0.2 1002324
03:00−17nne4895100 0.3 1004334
06:00−20nne4896100 0.1 1006335
09:00−21n3693100 0.2 1009309
12:00−18n358891 0.0 1011421
15:00−18n368795 0.0 1013583
18:00−23n3696100 0.0 1015132
21:00−27nne369772 0.0 1018135
10 march, wed
wed1000:00−29nne25980 0.0 101992
03:00−31nne23980 0.0 102050
06:00−32n24970 0.0 102074
09:00−26n25930 0.0 1020274
12:00−19n368629 0.0 1019582
15:00−17nnw368255 0.0 1018732
18:00−21wnw359697 0.0 1017100
21:00−20wnw399675 0.0 1017307
11 march, thu
thu1100:00−18wnw3994100 0.1 1015402
03:00−17wnw4994100 0.2 1014402
06:00−15wnw41192100 0.1 1013504
09:00−8nw61188100 0.3 10131030
12:00−8nw61089100 0.2 1014789
15:00−8nw51080100 0.4 1014852
18:00−12wnw41388100 0.0 1016642
21:00−13wnw4129196 0.0 1017594
12 march, fri
fri1200:00−14wnw41191100 0.0 1018572
03:00−14wnw41192100 0.0 1018548
06:00−13w41192100 0.0 1018561
09:00−11w4985100 0.0 1019618
12:00−8w5981100 0.0 1018757
15:00−7w51087100 0.1 1018816
18:00−9w41292100 0.1 1019660
21:00−9w41191100 0.1 1020612